Weather in Yushkozero

Russia / Republic of Karelia     64°44′53″N   32°06′13″E
temp.,
°C
wind,
m/s
gust,
m/s
humid.,
%
clouds,
%
prec.,
mm/h
press.,
hPa
HPBL,
m
27 february, sat
sat2700:00−1nw3695100 0.0 1003244
03:00−2nw3895100 0.0 1007327
06:00−7nw369471 0.0 1008118
09:00−5nw399441 0.0 1012233
12:00−2nnw379066 0.0 1014414
15:00−1wnw358958 0.0 1015437
18:00−4w36932 0.0 1014123
21:00−6w36951 0.0 1014114
28 february, sun
sun2800:00−6sw239383 0.0 101142
03:00−5ssw269391 0.0 1010148
06:00−5sw2596100 0.0 1009129
09:00−5wsw2496100 0.0 1010112
12:00−1w369480 0.0 1010281
15:00+1wnw489586 0.0 1012478
18:00−1w399340 0.0 1012235
21:00−3w389343 0.0 1013192
1 march, mon
mon100:00−1wsw4109398 0.0 1011312
03:00+1wsw5119899 0.0 1009526
06:00+1w61490100 0.0 1006670
09:00+2w51391100 0.0 1005624
12:00+1w51199100 0.1 1003631
15:00+1w41095100 0.8 1002632
18:00+1w6139486 0.0 1001925
21:00−1wnw7167768 0.1 1002826
2 march, tue
tue200:00−1wnw6158140 0.0 1002765
03:00−2wnw6158127 0.0 1003802
06:00−3wnw614820 0.0 1003798
09:00−3nw5138541 0.0 1006645
12:000wnw612770 0.0 1007919
15:000nw612760 0.0 10091180
18:00−2wnw514820 0.0 1009712
21:00−3wnw514850 0.0 1010621
3 march, wed
wed300:00−4nw412860 0.0 1012486
03:00−7wnw38910 0.0 1013179
06:00−7w38930 0.0 1014172
09:00−6w499220 0.0 1013277
12:00−3w498488 0.0 1012474
15:00−1w4108095 0.0 1009565
18:00−3ssw41087100 0.0 1005380
21:00−1sw51296100 1.4 999781